This demonstration page uses our WeatherBlox Daily Observations layout. Learn more.

39.29038, -76.61219

Hourly Observations for February 10, 2020

Temp ( °F °C ) Dew Point ( °F °C ) Humidity (%) Winds ( mph kmh ) Pressure ( in mb ) Visibility ( mi km ) Precip ( " mm )
12:54 am 00:54 undefined 43 6.1 30 -1.1 60 60 undefined N/A 30.3 1026 N/A 0 0
1:54 am 01:54 undefined 44 6.7 31 -0.6 60 60 undefined N/A 30.28 1025 N/A 0 0
2:54 am 02:54 undefined 44 6.7 32 0 63 63 undefined N/A 30.27 1025 N/A 0 0
3:54 am 03:54 undefined 44 6.7 32 0 63 63 undefined N/A 30.24 1024 N/A 0 0
4:54 am 04:54 undefined 46 7.8 30 -1.1 54 54 undefined N/A 30.2 1023 N/A 0 0
5:54 am 05:54 undefined 47 8.3 30 -1.1 52 52 undefined N/A 30.2 1023 N/A 0 0
6:54 am 06:54 undefined 46 7.8 33 0.6 61 61 undefined N/A 30.19 1022 N/A 0.01 0.254
7:54 am 07:54 undefined 45 7.2 35 1.7 68 68 undefined N/A 30.19 1023 N/A 0.01 0.254
8:54 am 08:54 undefined 43 6.1 37 2.8 80 80 undefined N/A 30.19 1022 N/A 0.03 0.762
9:54 am 09:54 undefined 44 6.7 38 3.3 79 79 undefined N/A 30.19 1022 N/A 0.02 0.508
10:54 am 10:54 undefined 45 7.2 38 3.3 77 77 undefined N/A 30.18 1022 N/A 0.01 0.254
11:54 am 11:54 undefined 47 8.3 38 3.3 71 71 undefined N/A 30.18 1022 N/A 0 0
12:54 pm 12:54 undefined 48 8.9 38 3.3 68 68 undefined N/A 30.15 1021 N/A 0 0
1:54 pm 13:54 undefined 47 8.3 40 4.4 77 77 undefined N/A 30.12 1020 N/A 0.01 0.254
2:54 pm 14:54 undefined 46 7.8 41 5 83 83 undefined N/A 30.12 1020 N/A 0.01 0.254
3:54 pm 15:54 undefined 46 7.8 42 5.6 86 86 undefined N/A 30.12 1020 N/A 0.02 0.508
4:54 pm 16:54 undefined 46 7.8 43 6.1 89 89 undefined N/A 30.12 1020 N/A 0.02 0.508
5:54 pm 17:54 undefined 47 8.3 43 6.1 86 86 undefined N/A 30.14 1021 N/A 0.03 0.762
6:54 pm 18:54 undefined 47 8.3 44 6.7 90 90 undefined N/A 30.14 1021 N/A 0.04 1.016
7:54 pm 19:54 undefined 48 8.9 45 7.2 89 89 undefined N/A 30.13 1020 N/A 0.03 0.762
8:54 pm 20:54 undefined 48 8.9 45 7.2 89 89 undefined N/A 30.14 1021 N/A 0.01 0.254
9:54 pm 21:54 undefined 48 8.9 46 7.8 93 93 undefined N/A 30.12 1020 N/A 0 0
10:54 pm 22:54 undefined 48 8.9 46 7.8 93 93 undefined N/A 30.11 1020 N/A 0 0
11:54 pm 23:54 undefined 48 8.9 46 7.8 93 93 undefined N/A 30.09 1019 N/A 0 0

Powered by AerisWeather